Time,TemperatureF,DewpointF,PressureIn,WindDirection,WindDirectionDegrees,WindSpeedMPH,WindSpeedGustMPH,Humidity,HourlyPrecipIn,Conditions,Clouds,dailyrainin,SoftwareType,DateUTC
2014-01-22 00:01:00,0.4,0.0,29.20,NE,45,6.0,9.0,91,0.00,,,0.00,Rainwise IP-100,2014-01-22 05:01:00,
2014-01-22 00:06:00,-0.1,0.0,29.20,NE,45,4.0,9.0,91,0.00,,,0.00,Rainwise IP-100,2014-01-22 05:06:00,
2014-01-22 00:11:00,-0.5,0.0,29.19,NNE,22,4.0,12.0,91,0.00,,,0.00,Rainwise IP-100,2014-01-22 05:11:00,
2014-01-22 00:16:00,-0.3,0.0,29.19,North,360,9.0,10.0,91,0.00,,,0.00,Rainwise IP-100,2014-01-22 05:16:00,
2014-01-22 00:21:00,-0.7,0.0,29.19,NNE,22,7.0,12.0,91,0.00,,,0.00,Rainwise IP-100,2014-01-22 05:21:00,
2014-01-22 00:26:00,-0.7,0.0,29.19,NNE,22,7.0,7.0,91,0.00,,,0.00,Rainwise IP-100,2014-01-22 05:26:00,
2014-01-22 00:31:00,-0.7,0.0,29.19,North,360,7.0,8.0,91,0.00,,,0.00,Rainwise IP-100,2014-01-22 05:31:00,
2014-01-22 00:36:00,-0.6,0.0,29.18,North,360,5.0,9.0,91,0.00,,,0.00,Rainwise IP-100,2014-01-22 05:36:00,
2014-01-22 00:41:00,-0.7,0.0,29.18,NNW,337,6.0,10.0,91,0.00,,,0.00,Rainwise IP-100,2014-01-22 05:41:00,
2014-01-22 00:46:00,-0.6,0.0,29.17,North,360,6.0,10.0,91,0.00,,,0.00,Rainwise IP-100,2014-01-22 05:46:00,
2014-01-22 00:51:00,-0.7,0.0,29.17,North,360,3.0,9.0,91,0.00,,,0.00,Rainwise IP-100,2014-01-22 05:51:00,
2014-01-22 00:56:00,-0.7,0.0,29.17,North,360,4.0,9.0,91,0.00,,,0.00,Rainwise IP-100,2014-01-22 05:56:00,
2014-01-22 01:01:00,-0.8,0.0,29.17,NNE,22,4.0,9.0,91,0.00,,,0.00,Rainwise IP-100,2014-01-22 06:01:00,
2014-01-22 01:06:00,-1.1,0.0,29.17,North,360,4.0,9.0,91,0.00,,,0.00,Rainwise IP-100,2014-01-22 06:06:00,
2014-01-22 01:11:00,-1.2,0.0,29.17,NNW,337,4.0,9.0,91,0.00,,,0.00,Rainwise IP-100,2014-01-22 06:11:00,
2014-01-22 01:16:00,-1.3,0.0,29.17,NNW,337,3.0,7.0,91,0.00,,,0.00,Rainwise IP-100,2014-01-22 06:16:00,
2014-01-22 01:21:00,-1.5,0.0,29.17,NNW,337,6.0,9.0,91,0.00,,,0.00,Rainwise IP-100,2014-01-22 06:21:00,
2014-01-22 01:26:00,-1.4,0.0,29.17,North,360,6.0,11.0,91,0.00,,,0.00,Rainwise IP-100,2014-01-22 06:26:00,
2014-01-22 01:31:00,-1.6,0.0,29.17,NNW,337,9.0,9.0,91,0.00,,,0.00,Rainwise IP-100,2014-01-22 06:31:00,
2014-01-22 01:36:00,-1.7,0.0,29.17,NNW,337,5.0,11.0,91,0.00,,,0.00,Rainwise IP-100,2014-01-22 06:36:00,
2014-01-22 01:41:00,-1.7,0.0,29.16,NNW,337,4.0,9.0,91,0.00,,,0.00,Rainwise IP-100,2014-01-22 06:41:00,
2014-01-22 01:46:00,-1.9,0.0,29.17,NNW,337,7.0,9.0,91,0.00,,,0.00,Rainwise IP-100,2014-01-22 06:46:00,
2014-01-22 01:51:00,-1.9,0.0,29.17,NW,315,2.0,9.0,91,0.00,,,0.00,Rainwise IP-100,2014-01-22 06:51:00,
2014-01-22 01:56:00,-2.4,0.0,29.16,NW,315,2.0,4.0,91,0.00,,,0.00,Rainwise IP-100,2014-01-22 06:56:00,
2014-01-22 02:01:00,-2.6,0.0,29.17,NW,315,3.0,6.0,91,0.00,,,0.00,Rainwise IP-100,2014-01-22 07:01:00,
2014-01-22 02:06:00,-2.9,0.0,29.17,WNW,292,2.0,5.0,91,0.00,,,0.00,Rainwise IP-100,2014-01-22 07:06:00,
2014-01-22 02:11:00,-3.4,0.0,29.17,WNW,292,2.0,7.0,91,0.00,,,0.00,Rainwise IP-100,2014-01-22 07:11:00,
2014-01-22 02:16:00,-3.8,0.0,29.16,WNW,292,3.0,6.0,91,0.00,,,0.00,Rainwise IP-100,2014-01-22 07:16:00,
2014-01-22 02:21:00,-4.1,0.0,29.17,WNW,292,2.0,5.0,92,0.00,,,0.00,Rainwise IP-100,2014-01-22 07:21:00,
2014-01-22 02:26:00,-4.3,0.0,29.16,West,270,3.0,5.0,92,0.00,,,0.00,Rainwise IP-100,2014-01-22 07:26:00,
2014-01-22 02:31:00,-4.5,0.0,29.17,WNW,292,4.0,6.0,91,0.00,,,0.00,Rainwise IP-100,2014-01-22 07:31:00,
2014-01-22 02:36:00,-4.6,0.0,29.17,West,270,2.0,6.0,91,0.00,,,0.00,Rainwise IP-100,2014-01-22 07:36:00,
2014-01-22 02:41:00,-4.6,0.0,29.17,WNW,292,2.0,6.0,91,0.00,,,0.00,Rainwise IP-100,2014-01-22 07:41:00,
2014-01-22 02:46:00,-4.6,0.0,29.17,WNW,292,4.0,6.0,91,0.00,,,0.00,Rainwise IP-100,2014-01-22 07:46:00,
2014-01-22 02:51:00,-4.7,0.0,29.16,West,270,3.0,5.0,91,0.00,,,0.00,Rainwise IP-100,2014-01-22 07:51:00,
2014-01-22 02:56:00,-5.1,0.0,29.16,West,270,3.0,4.0,91,0.00,,,0.00,Rainwise IP-100,2014-01-22 07:56:00,
2014-01-22 03:01:00,-5.1,0.0,29.16,West,270,4.0,5.0,91,0.00,,,0.00,Rainwise IP-100,2014-01-22 08:01:00,
2014-01-22 03:06:00,-5.1,0.0,29.16,West,270,3.0,7.0,91,0.00,,,0.00,Rainwise IP-100,2014-01-22 08:06:00,
2014-01-22 03:11:00,-5.1,0.0,29.15,West,270,4.0,6.0,91,0.00,,,0.00,Rainwise IP-100,2014-01-22 08:11:00,
2014-01-22 03:16:00,-5.1,0.0,29.15,West,270,6.0,6.0,91,0.00,,,0.00,Rainwise IP-100,2014-01-22 08:16:00,
2014-01-22 03:21:00,-4.9,0.0,29.15,West,270,4.0,7.0,91,0.00,,,0.00,Rainwise IP-100,2014-01-22 08:21:00,
2014-01-22 03:26:00,-5.1,0.0,29.15,West,270,3.0,6.0,90,0.00,,,0.00,Rainwise IP-100,2014-01-22 08:26:00,
2014-01-22 03:31:00,-5.5,0.0,29.15,West,270,2.0,6.0,90,0.00,,,0.00,Rainwise IP-100,2014-01-22 08:31:00,
2014-01-22 03:36:00,-5.9,-6.0,29.16,West,270,3.0,6.0,90,0.00,,,0.00,Rainwise IP-100,2014-01-22 08:36:00,
2014-01-22 03:41:00,-6.2,-6.0,29.16,West,270,4.0,6.0,90,0.00,,,0.00,Rainwise IP-100,2014-01-22 08:41:00,
2014-01-22 03:46:00,-6.2,-6.0,29.16,WSW,247,2.0,6.0,90,0.00,,,0.00,Rainwise IP-100,2014-01-22 08:46:00,
2014-01-22 03:51:00,-6.8,-6.0,29.16,WSW,247,3.0,5.0,90,0.00,,,0.00,Rainwise IP-100,2014-01-22 08:51:00,
2014-01-22 03:56:00,-6.9,-6.0,29.15,West,270,3.0,6.0,90,0.00,,,0.00,Rainwise IP-100,2014-01-22 08:56:00,
2014-01-22 04:01:00,-7.2,-6.0,29.15,West,270,5.0,6.0,90,0.00,,,0.00,Rainwise IP-100,2014-01-22 09:01:00,
2014-01-22 04:06:00,-6.7,-6.0,29.14,West,270,4.0,6.0,91,0.00,,,0.00,Rainwise IP-100,2014-01-22 09:06:00,
2014-01-22 04:11:00,-6.3,-6.0,29.14,West,270,3.0,6.0,91,0.00,,,0.00,Rainwise IP-100,2014-01-22 09:11:00,
2014-01-22 04:16:00,-5.9,-6.0,29.14,West,270,2.0,5.0,91,0.00,,,0.00,Rainwise IP-100,2014-01-22 09:16:00,
2014-01-22 04:21:00,-5.8,-6.0,29.14,West,270,4.0,6.0,91,0.00,,,0.00,Rainwise IP-100,2014-01-22 09:21:00,
2014-01-22 04:26:00,-5.5,0.0,29.12,West,270,6.0,9.0,92,0.00,,,0.00,Rainwise IP-100,2014-01-22 09:26:00,
2014-01-22 04:31:00,-5.2,0.0,29.12,West,270,6.0,9.0,92,0.00,,,0.00,Rainwise IP-100,2014-01-22 09:31:00,
2014-01-22 04:36:00,-5.2,0.0,29.12,WNW,292,9.0,9.0,91,0.00,,,0.00,Rainwise IP-100,2014-01-22 09:36:00,
2014-01-22 04:41:00,-5.1,0.0,29.12,West,270,7.0,9.0,91,0.00,,,0.00,Rainwise IP-100,2014-01-22 09:41:00,
2014-01-22 04:46:00,-5.1,0.0,29.12,WNW,292,3.0,9.0,91,0.00,,,0.00,Rainwise IP-100,2014-01-22 09:46:00,
2014-01-22 04:51:00,-5.1,0.0,29.12,NNW,337,2.0,5.0,92,0.00,,,0.00,Rainwise IP-100,2014-01-22 09:51:00,
2014-01-22 04:56:00,-5.1,0.0,29.12,West,270,2.0,7.0,92,0.00,,,0.00,Rainwise IP-100,2014-01-22 09:56:00,
2014-01-22 05:01:00,-4.6,0.0,29.12,WNW,292,6.0,7.0,92,0.00,,,0.00,Rainwise IP-100,2014-01-22 10:01:00,
2014-01-22 05:06:00,-4.1,0.0,29.11,WNW,292,4.0,9.0,92,0.00,,,0.00,Rainwise IP-100,2014-01-22 10:06:00,
2014-01-22 05:11:00,-3.9,0.0,29.11,West,270,4.0,9.0,91,0.00,,,0.00,Rainwise IP-100,2014-01-22 10:11:00,
2014-01-22 05:16:00,-4.1,0.0,29.11,WNW,292,5.0,10.0,91,0.00,,,0.00,Rainwise IP-100,2014-01-22 10:16:00,
2014-01-22 05:21:00,-3.8,0.0,29.12,West,270,6.0,9.0,90,0.00,,,0.00,Rainwise IP-100,2014-01-22 10:21:00,
2014-01-22 05:26:00,-4.1,0.0,29.12,West,270,8.0,9.0,91,0.00,,,0.00,Rainwise IP-100,2014-01-22 10:26:00,
2014-01-22 05:31:00,-4.1,0.0,29.12,WNW,292,4.0,9.0,91,0.00,,,0.00,Rainwise IP-100,2014-01-22 10:31:00,
2014-01-22 05:36:00,-4.1,0.0,29.12,WNW,292,6.0,9.0,92,0.00,,,0.00,Rainwise IP-100,2014-01-22 10:36:00,
2014-01-22 05:41:00,-4.1,0.0,29.12,West,270,7.0,9.0,91,0.00,,,0.00,Rainwise IP-100,2014-01-22 10:41:00,
2014-01-22 05:46:00,-4.1,0.0,29.12,West,270,2.0,10.0,91,0.00,,,0.00,Rainwise IP-100,2014-01-22 10:46:00,
2014-01-22 05:51:00,-4.1,0.0,29.12,WNW,292,2.0,9.0,91,0.00,,,0.00,Rainwise IP-100,2014-01-22 10:51:00,
2014-01-22 05:56:00,-4.1,0.0,29.12,WNW,292,6.0,9.0,91,0.00,,,0.00,Rainwise IP-100,2014-01-22 10:56:00,
2014-01-22 06:01:00,-3.9,0.0,29.13,WNW,292,8.0,11.0,90,0.00,,,0.00,Rainwise IP-100,2014-01-22 11:01:00,
2014-01-22 06:06:00,-3.9,0.0,29.13,WNW,292,6.0,9.0,90,0.00,,,0.00,Rainwise IP-100,2014-01-22 11:06:00,
2014-01-22 06:11:00,-3.9,0.0,29.13,WNW,292,6.0,9.0,90,0.00,,,0.00,Rainwise IP-100,2014-01-22 11:11:00,
2014-01-22 06:16:00,-4.1,0.0,29.13,WNW,292,5.0,10.0,91,0.00,,,0.00,Rainwise IP-100,2014-01-22 11:16:00,
2014-01-22 06:21:00,-4.2,0.0,29.13,WNW,292,7.0,11.0,91,0.00,,,0.00,Rainwise IP-100,2014-01-22 11:21:00,
2014-01-22 06:26:00,-4.1,0.0,29.13,WNW,292,6.0,11.0,91,0.00,,,0.00,Rainwise IP-100,2014-01-22 11:26:00,
2014-01-22 06:31:00,-4.1,0.0,29.13,West,270,2.0,11.0,91,0.00,,,0.00,Rainwise IP-100,2014-01-22 11:31:00,
2014-01-22 06:36:00,-4.2,0.0,29.14,West,270,9.0,9.0,90,0.00,,,0.00,Rainwise IP-100,2014-01-22 11:36:00,
2014-01-22 06:41:00,-4.4,0.0,29.13,West,270,10.0,11.0,90,0.00,,,0.00,Rainwise IP-100,2014-01-22 11:41:00,
2014-01-22 06:46:00,-4.4,0.0,29.13,West,270,7.0,11.0,91,0.00,,,0.00,Rainwise IP-100,2014-01-22 11:46:00,
2014-01-22 06:51:00,-4.4,0.0,29.14,West,270,5.0,9.0,91,0.00,,,0.00,Rainwise IP-100,2014-01-22 11:51:00,
2014-01-22 06:56:00,-4.2,0.0,29.14,WNW,292,10.0,11.0,91,0.00,,,0.00,Rainwise IP-100,2014-01-22 11:56:00,
2014-01-22 07:01:00,-4.1,0.0,29.14,WNW,292,7.0,12.0,91,0.00,,,0.00,Rainwise IP-100,2014-01-22 12:01:00,
2014-01-22 07:06:00,-3.9,0.0,29.14,WNW,292,4.0,11.0,89,0.00,,,0.00,Rainwise IP-100,2014-01-22 12:06:00,
2014-01-22 07:11:00,-4.1,0.0,29.14,NW,315,4.0,9.0,90,0.00,,,0.00,Rainwise IP-100,2014-01-22 12:11:00,
2014-01-22 07:16:00,-4.1,0.0,29.14,WNW,292,6.0,8.0,90,0.00,,,0.00,Rainwise IP-100,2014-01-22 12:16:00,
2014-01-22 07:21:00,-4.2,0.0,29.14,NW,315,2.0,7.0,90,0.00,,,0.00,Rainwise IP-100,2014-01-22 12:21:00,
2014-01-22 07:26:00,-4.5,0.0,29.14,North,360,3.0,6.0,90,0.00,,,0.00,Rainwise IP-100,2014-01-22 12:26:00,
2014-01-22 07:31:00,-4.9,0.0,29.14,North,360,3.0,5.0,90,0.00,,,0.00,Rainwise IP-100,2014-01-22 12:31:00,
2014-01-22 07:36:00,-4.9,0.0,29.14,North,360,2.0,4.0,91,0.00,,,0.00,Rainwise IP-100,2014-01-22 12:36:00,
2014-01-22 07:41:00,-5.1,0.0,29.14,NNW,337,2.0,5.0,91,0.00,,,0.00,Rainwise IP-100,2014-01-22 12:41:00,
2014-01-22 07:46:00,-5.1,0.0,29.14,NW,315,2.0,5.0,91,0.00,,,0.00,Rainwise IP-100,2014-01-22 12:46:00,
2014-01-22 07:51:00,-5.2,0.0,29.13,NW,315,2.0,5.0,91,0.00,,,0.00,Rainwise IP-100,2014-01-22 12:51:00,
2014-01-22 07:56:00,-5.4,0.0,29.13,NNE,22,2.0,5.0,91,0.00,,,0.00,Rainwise IP-100,2014-01-22 12:56:00,
2014-01-22 08:01:00,-5.5,0.0,29.14,NNE,22,1.0,3.0,91,0.00,,,0.00,Rainwise IP-100,2014-01-22 13:01:00,
2014-01-22 08:06:00,-5.8,-6.0,29.15,NNE,22,0.0,2.0,91,0.00,,,0.00,Rainwise IP-100,2014-01-22 13:06:00,
2014-01-22 08:11:00,-6.2,-6.0,29.15,NNE,22,2.0,2.0,91,0.00,,,0.00,Rainwise IP-100,2014-01-22 13:11:00,
2014-01-22 08:16:00,-6.3,-6.0,29.15,NNE,22,1.0,2.0,92,0.00,,,0.00,Rainwise IP-100,2014-01-22 13:16:00,
2014-01-22 08:21:00,-6.3,-6.0,29.15,NNW,337,3.0,4.0,92,0.00,,,0.00,Rainwise IP-100,2014-01-22 13:21:00,
2014-01-22 08:26:00,-6.2,-6.0,29.15,NNW,337,1.0,4.0,92,0.00,,,0.00,Rainwise IP-100,2014-01-22 13:26:00,
2014-01-22 08:31:00,-6.2,-6.0,29.15,NW,315,3.0,3.0,92,0.00,,,0.00,Rainwise IP-100,2014-01-22 13:31:00,
2014-01-22 08:36:00,-5.8,-6.0,29.15,NNW,337,2.0,5.0,92,0.00,,,0.00,Rainwise IP-100,2014-01-22 13:36:00,
2014-01-22 08:41:00,-5.9,-6.0,29.15,WNW,292,2.0,5.0,92,0.00,,,0.00,Rainwise IP-100,2014-01-22 13:41:00,
2014-01-22 08:46:00,-5.6,0.0,29.15,WNW,292,3.0,7.0,92,0.00,,,0.00,Rainwise IP-100,2014-01-22 13:46:00,
2014-01-22 08:51:00,-5.3,0.0,29.15,NW,315,4.0,5.0,92,0.00,,,0.00,Rainwise IP-100,2014-01-22 13:51:00,
2014-01-22 08:56:00,-4.8,0.0,29.14,NW,315,3.0,6.0,92,0.00,,,0.00,Rainwise IP-100,2014-01-22 13:56:00,
2014-01-22 09:01:00,-4.6,0.0,29.15,NW,315,4.0,7.0,91,0.00,,,0.00,Rainwise IP-100,2014-01-22 14:01:00,
2014-01-22 09:06:00,-4.6,0.0,29.15,WNW,292,2.0,7.0,91,0.00,,,0.00,Rainwise IP-100,2014-01-22 14:06:00,
2014-01-22 09:11:00,-4.6,0.0,29.15,NW,315,4.0,4.0,91,0.00,,,0.00,Rainwise IP-100,2014-01-22 14:11:00,
2014-01-22 09:16:00,-4.5,0.0,29.15,NW,315,4.0,4.0,91,0.00,,,0.00,Rainwise IP-100,2014-01-22 14:16:00,
2014-01-22 09:21:00,-4.3,0.0,29.15,NNW,337,2.0,6.0,91,0.00,,,0.00,Rainwise IP-100,2014-01-22 14:21:00,
2014-01-22 09:26:00,-4.3,0.0,29.15,NW,315,3.0,5.0,91,0.00,,,0.00,Rainwise IP-100,2014-01-22 14:26:00,
2014-01-22 09:31:00,-4.1,0.0,29.15,NW,315,2.0,5.0,91,0.00,,,0.00,Rainwise IP-100,2014-01-22 14:31:00,
2014-01-22 09:36:00,-3.7,0.0,29.15,WNW,292,2.0,5.0,90,0.00,,,0.00,Rainwise IP-100,2014-01-22 14:36:00,
2014-01-22 09:41:00,-3.2,0.0,29.15,NW,315,3.0,6.0,90,0.00,,,0.00,Rainwise IP-100,2014-01-22 14:41:00,
2014-01-22 09:46:00,-2.4,0.0,29.15,NW,315,4.0,6.0,91,0.00,,,0.00,Rainwise IP-100,2014-01-22 14:46:00,
2014-01-22 09:51:00,-2.1,0.0,29.15,NW,315,4.0,6.0,90,0.00,,,0.00,Rainwise IP-100,2014-01-22 14:51:00,
2014-01-22 09:56:00,-1.6,0.0,29.16,NW,315,3.0,6.0,89,0.00,,,0.00,Rainwise IP-100,2014-01-22 14:56:00,
2014-01-22 10:01:00,-1.4,0.0,29.16,NW,315,4.0,6.0,89,0.00,,,0.00,Rainwise IP-100,2014-01-22 15:01:00,
2014-01-22 10:07:00,-0.7,0.0,29.16,NNW,337,1.0,6.0,89,0.00,,,0.00,Rainwise IP-100,2014-01-22 15:07:00,
2014-01-22 10:12:00,-0.3,0.0,29.16,NW,315,2.0,4.0,88,0.00,,,0.00,Rainwise IP-100,2014-01-22 15:12:00,
2014-01-22 10:17:00,1.6,0.0,29.16,NNW,337,3.0,4.0,87,0.00,,,0.00,Rainwise IP-100,2014-01-22 15:17:00,
2014-01-22 10:22:00,2.1,0.0,29.16,NNW,337,2.0,5.0,84,0.00,,,0.00,Rainwise IP-100,2014-01-22 15:22:00,
2014-01-22 10:27:00,2.1,0.0,29.16,NNW,337,3.0,4.0,82,0.00,,,0.00,Rainwise IP-100,2014-01-22 15:27:00,
2014-01-22 10:32:00,2.4,0.0,29.16,North,360,7.0,7.0,81,0.00,,,0.00,Rainwise IP-100,2014-01-22 15:32:00,
2014-01-22 10:37:00,2.9,0.0,29.16,NNW,337,3.0,7.0,80,0.00,,,0.00,Rainwise IP-100,2014-01-22 15:37:00,
2014-01-22 10:42:00,3.4,0.0,29.16,North,360,5.0,7.0,77,0.00,,,0.00,Rainwise IP-100,2014-01-22 15:42:00,
2014-01-22 10:47:00,3.8,0.0,29.16,NW,315,4.0,8.0,76,0.00,,,0.00,Rainwise IP-100,2014-01-22 15:47:00,
2014-01-22 10:52:00,3.7,0.0,29.16,NNW,337,3.0,9.0,76,0.00,,,0.00,Rainwise IP-100,2014-01-22 15:52:00,
2014-01-22 10:57:00,4.3,0.0,29.16,NNW,337,6.0,9.0,74,0.00,,,0.00,Rainwise IP-100,2014-01-22 15:57:00,
2014-01-22 11:02:00,3.5,0.0,29.16,NNW,337,7.0,12.0,73,0.00,,,0.00,Rainwise IP-100,2014-01-22 16:02:00,
2014-01-22 11:07:00,3.6,0.0,29.16,NW,315,6.0,9.0,75,0.00,,,0.00,Rainwise IP-100,2014-01-22 16:07:00,
2014-01-22 11:12:00,2.7,0.0,29.15,WNW,292,4.0,12.0,74,0.00,,,0.00,Rainwise IP-100,2014-01-22 16:12:00,
2014-01-22 11:17:00,2.5,0.0,29.15,WNW,292,4.0,9.0,75,0.00,,,0.00,Rainwise IP-100,2014-01-22 16:17:00,
2014-01-22 11:22:00,3.2,0.0,29.15,NW,315,4.0,8.0,74,0.00,,,0.00,Rainwise IP-100,2014-01-22 16:22:00,
2014-01-22 11:27:00,3.5,0.0,29.15,NNW,337,7.0,7.0,73,0.00,,,0.00,Rainwise IP-100,2014-01-22 16:27:00,
2014-01-22 11:32:00,3.9,-6.0,29.14,NW,315,6.0,9.0,69,0.00,,,0.00,Rainwise IP-100,2014-01-22 16:32:00,
2014-01-22 11:37:00,2.9,0.0,29.14,NW,315,3.0,8.0,71,0.00,,,0.00,Rainwise IP-100,2014-01-22 16:37:00,
2014-01-22 11:42:00,3.5,0.0,29.14,NW,315,4.0,8.0,71,0.00,,,0.00,Rainwise IP-100,2014-01-22 16:42:00,
2014-01-22 11:47:00,3.1,0.0,29.14,NW,315,3.0,8.0,70,0.00,,,0.00,Rainwise IP-100,2014-01-22 16:47:00,
2014-01-22 11:52:00,3.4,0.0,29.14,WNW,292,3.0,6.0,71,0.00,,,0.00,Rainwise IP-100,2014-01-22 16:52:00,
2014-01-22 11:57:00,3.8,0.0,29.14,NW,315,4.0,7.0,71,0.00,,,0.00,Rainwise IP-100,2014-01-22 16:57:00,
2014-01-22 12:02:00,3.2,0.0,29.14,West,270,4.0,9.0,73,0.00,,,0.00,Rainwise IP-100,2014-01-22 17:02:00,
2014-01-22 12:07:00,3.4,0.0,29.14,WNW,292,7.0,9.0,74,0.00,,,0.00,Rainwise IP-100,2014-01-22 17:07:00,
2014-01-22 12:12:00,3.3,0.0,29.13,WNW,292,6.0,11.0,71,0.00,,,0.00,Rainwise IP-100,2014-01-22 17:12:00,
2014-01-22 12:17:00,4.5,0.0,29.13,NNW,337,2.0,9.0,71,0.00,,,0.00,Rainwise IP-100,2014-01-22 17:17:00,
2014-01-22 12:22:00,4.9,0.0,29.13,NNW,337,6.0,11.0,68,0.00,,,0.00,Rainwise IP-100,2014-01-22 17:22:00,
2014-01-22 12:27:00,5.1,0.0,29.13,NW,315,5.0,9.0,67,0.00,,,0.00,Rainwise IP-100,2014-01-22 17:27:00,
2014-01-22 12:32:00,4.6,0.0,29.12,WNW,292,5.0,8.0,68,0.00,,,0.00,Rainwise IP-100,2014-01-22 17:32:00,
2014-01-22 12:37:00,4.1,-6.0,29.12,WNW,292,8.0,12.0,69,0.00,,,0.00,Rainwise IP-100,2014-01-22 17:37:00,
2014-01-22 12:42:00,4.1,0.0,29.12,West,270,6.0,11.0,70,0.00,,,0.00,Rainwise IP-100,2014-01-22 17:42:00,
2014-01-22 12:47:00,3.9,0.0,29.12,NW,315,3.0,10.0,70,0.00,,,0.00,Rainwise IP-100,2014-01-22 17:47:00,
2014-01-22 12:52:00,4.4,-6.0,29.12,NNW,337,7.0,11.0,68,0.00,,,0.00,Rainwise IP-100,2014-01-22 17:52:00,
2014-01-22 12:57:00,4.9,0.0,29.12,NW,315,10.0,12.0,66,0.00,,,0.00,Rainwise IP-100,2014-01-22 17:57:00,
2014-01-22 13:02:00,4.8,0.0,29.12,WNW,292,6.0,14.0,67,0.00,,,0.00,Rainwise IP-100,2014-01-22 18:02:00,
2014-01-22 13:07:00,4.9,0.0,29.11,WNW,292,6.0,12.0,67,0.00,,,0.00,Rainwise IP-100,2014-01-22 18:07:00,
2014-01-22 13:13:00,4.6,0.0,29.11,NNW,337,4.0,11.0,68,0.00,,,0.00,Rainwise IP-100,2014-01-22 18:13:00,
2014-01-22 13:18:00,5.6,0.0,29.11,NW,315,4.0,11.0,67,0.00,,,0.00,Rainwise IP-100,2014-01-22 18:18:00,
2014-01-22 13:23:00,5.6,0.0,29.10,NNW,337,6.0,9.0,65,0.00,,,0.00,Rainwise IP-100,2014-01-22 18:23:00,
2014-01-22 13:28:00,5.7,0.0,29.09,NW,315,10.0,12.0,65,0.00,,,0.00,Rainwise IP-100,2014-01-22 18:28:00,
2014-01-22 13:33:00,5.8,0.0,29.10,WNW,292,7.0,11.0,65,0.00,,,0.00,Rainwise IP-100,2014-01-22 18:33:00,
2014-01-22 13:38:00,5.4,0.0,29.10,West,270,10.0,12.0,65,0.00,,,0.00,Rainwise IP-100,2014-01-22 18:38:00,
2014-01-22 13:43:00,5.2,0.0,29.10,NW,315,8.0,12.0,66,0.00,,,0.00,Rainwise IP-100,2014-01-22 18:43:00,
2014-01-22 13:48:00,4.9,0.0,29.10,WNW,292,5.0,11.0,66,0.00,,,0.00,Rainwise IP-100,2014-01-22 18:48:00,
2014-01-22 13:53:00,4.9,0.0,29.11,WNW,292,3.0,10.0,67,0.00,,,0.00,Rainwise IP-100,2014-01-22 18:53:00,
2014-01-22 13:58:00,4.9,0.0,29.10,WNW,292,4.0,13.0,66,0.00,,,0.00,Rainwise IP-100,2014-01-22 18:58:00,
2014-01-22 14:03:00,5.1,0.0,29.10,NW,315,6.0,11.0,67,0.00,,,0.00,Rainwise IP-100,2014-01-22 19:03:00,
2014-01-22 14:08:00,5.4,0.0,29.10,WNW,292,7.0,11.0,65,0.00,,,0.00,Rainwise IP-100,2014-01-22 19:08:00,
2014-01-22 14:13:00,5.3,0.0,29.10,NW,315,4.0,9.0,65,0.00,,,0.00,Rainwise IP-100,2014-01-22 19:13:00,
2014-01-22 14:18:00,6.4,0.0,29.09,NW,315,3.0,8.0,63,0.00,,,0.00,Rainwise IP-100,2014-01-22 19:18:00,
2014-01-22 14:23:00,5.9,0.0,29.09,NW,315,4.0,9.0,64,0.00,,,0.00,Rainwise IP-100,2014-01-22 19:23:00,
2014-01-22 14:28:00,6.2,0.0,29.10,NNW,337,5.0,9.0,64,0.00,,,0.00,Rainwise IP-100,2014-01-22 19:28:00,
2014-01-22 14:33:00,5.4,0.0,29.10,NW,315,4.0,9.0,67,0.00,,,0.00,Rainwise IP-100,2014-01-22 19:33:00,
2014-01-22 14:38:00,4.9,0.0,29.11,WNW,292,6.0,7.0,68,0.00,,,0.00,Rainwise IP-100,2014-01-22 19:38:00,
2014-01-22 14:43:00,4.9,0.0,29.11,West,270,3.0,9.0,69,0.00,,,0.00,Rainwise IP-100,2014-01-22 19:43:00,
2014-01-22 14:48:00,4.8,0.0,29.11,NW,315,2.0,9.0,69,0.00,,,0.00,Rainwise IP-100,2014-01-22 19:48:00,
2014-01-22 14:53:00,5.4,0.0,29.11,NW,315,4.0,9.0,68,0.00,,,0.00,Rainwise IP-100,2014-01-22 19:53:00,
2014-01-22 14:58:00,5.6,0.0,29.10,NW,315,6.0,9.0,68,0.00,,,0.00,Rainwise IP-100,2014-01-22 19:58:00,
2014-01-22 15:03:00,5.6,0.0,29.10,NW,315,7.0,9.0,70,0.00,,,0.00,Rainwise IP-100,2014-01-22 20:03:00,
2014-01-22 15:08:00,5.5,0.0,29.10,WNW,292,3.0,11.0,70,0.00,,,0.00,Rainwise IP-100,2014-01-22 20:08:00,
2014-01-22 15:13:00,5.8,0.0,29.10,WNW,292,2.0,9.0,69,0.00,,,0.00,Rainwise IP-100,2014-01-22 20:13:00,
2014-01-22 15:18:00,5.4,0.0,29.10,WNW,292,4.0,7.0,70,0.00,,,0.00,Rainwise IP-100,2014-01-22 20:18:00,
2014-01-22 15:23:00,5.1,0.0,29.12,WNW,292,3.0,10.0,72,0.00,,,0.00,Rainwise IP-100,2014-01-22 20:23:00,
2014-01-22 15:28:00,5.3,0.0,29.12,NW,315,3.0,7.0,72,0.00,,,0.00,Rainwise IP-100,2014-01-22 20:28:00,
2014-01-22 15:33:00,5.5,0.0,29.11,NW,315,2.0,6.0,72,0.00,,,0.00,Rainwise IP-100,2014-01-22 20:33:00,
2014-01-22 15:38:00,5.3,0.0,29.11,WNW,292,3.0,7.0,74,0.00,,,0.00,Rainwise IP-100,2014-01-22 20:38:00,
2014-01-22 15:43:00,5.1,4.0,29.12,NW,315,2.0,7.0,75,0.00,,,0.00,Rainwise IP-100,2014-01-22 20:43:00,
2014-01-22 15:48:00,5.1,0.0,29.12,NW,315,4.0,9.0,74,0.00,,,0.00,Rainwise IP-100,2014-01-22 20:48:00,
2014-01-22 15:53:00,5.2,0.0,29.12,NNW,337,1.0,6.0,74,0.00,,,0.00,Rainwise IP-100,2014-01-22 20:53:00,
2014-01-22 15:58:00,5.8,0.0,29.11,NW,315,5.0,7.0,72,0.00,,,0.00,Rainwise IP-100,2014-01-22 20:58:00,
2014-01-22 16:03:00,5.7,0.0,29.11,NNW,337,6.0,7.0,71,0.00,,,0.00,Rainwise IP-100,2014-01-22 21:03:00,
2014-01-22 16:08:00,5.6,0.0,29.11,NNW,337,2.0,7.0,71,0.00,,,0.00,Rainwise IP-100,2014-01-22 21:08:00,
2014-01-22 16:13:00,5.5,0.0,29.11,NW,315,1.0,5.0,72,0.00,,,0.00,Rainwise IP-100,2014-01-22 21:13:00,
2014-01-22 16:18:00,5.2,0.0,29.12,NW,315,2.0,4.0,72,0.00,,,0.00,Rainwise IP-100,2014-01-22 21:18:00,
2014-01-22 16:23:00,4.9,0.0,29.12,West,270,3.0,4.0,72,0.00,,,0.00,Rainwise IP-100,2014-01-22 21:23:00,
2014-01-22 16:28:00,4.6,0.0,29.12,NNW,337,3.0,5.0,71,0.00,,,0.00,Rainwise IP-100,2014-01-22 21:28:00,
2014-01-22 16:33:00,4.3,0.0,29.12,NW,315,2.0,6.0,71,0.00,,,0.00,Rainwise IP-100,2014-01-22 21:33:00,
2014-01-22 16:38:00,4.4,0.0,29.12,WNW,292,3.0,4.0,71,0.00,,,0.00,Rainwise IP-100,2014-01-22 21:38:00,
2014-01-22 16:43:00,4.1,0.0,29.12,WNW,292,2.0,4.0,71,0.00,,,0.00,Rainwise IP-100,2014-01-22 21:43:00,
2014-01-22 16:48:00,3.8,0.0,29.12,NW,315,2.0,4.0,71,0.00,,,0.00,Rainwise IP-100,2014-01-22 21:48:00,
2014-01-22 16:53:00,3.6,0.0,29.13,West,270,2.0,3.0,71,0.00,,,0.00,Rainwise IP-100,2014-01-22 21:53:00,
2014-01-22 16:58:00,3.4,0.0,29.13,WNW,292,2.0,4.0,71,0.00,,,0.00,Rainwise IP-100,2014-01-22 21:58:00,
2014-01-22 17:03:00,3.3,0.0,29.13,WNW,292,2.0,2.0,72,0.00,,,0.00,Rainwise IP-100,2014-01-22 22:03:00,
2014-01-22 17:08:00,2.9,0.0,29.13,WNW,292,1.0,2.0,72,0.00,,,0.00,Rainwise IP-100,2014-01-22 22:08:00,
2014-01-22 17:13:00,2.7,0.0,29.13,WNW,292,2.0,4.0,73,0.00,,,0.00,Rainwise IP-100,2014-01-22 22:13:00,
2014-01-22 17:18:00,2.4,0.0,29.13,WNW,292,2.0,2.0,73,0.00,,,0.00,Rainwise IP-100,2014-01-22 22:18:00,
2014-01-22 17:23:00,2.4,0.0,29.13,NW,315,2.0,3.0,73,0.00,,,0.00,Rainwise IP-100,2014-01-22 22:23:00,
2014-01-22 17:28:00,2.1,0.0,29.12,WNW,292,3.0,3.0,73,0.00,,,0.00,Rainwise IP-100,2014-01-22 22:28:00,
2014-01-22 17:33:00,1.5,0.0,29.12,WNW,292,1.0,3.0,74,0.00,,,0.00,Rainwise IP-100,2014-01-22 22:33:00,
2014-01-22 17:38:00,1.3,0.0,29.12,WNW,292,2.0,2.0,75,0.00,,,0.00,Rainwise IP-100,2014-01-22 22:38:00,
2014-01-22 17:43:00,1.3,0.0,29.13,WNW,292,2.0,2.0,75,0.00,,,0.00,Rainwise IP-100,2014-01-22 22:43:00,
2014-01-22 17:48:00,0.9,0.0,29.13,West,270,2.0,3.0,75,0.00,,,0.00,Rainwise IP-100,2014-01-22 22:48:00,
2014-01-22 17:53:00,1.1,0.0,29.13,West,270,2.0,3.0,76,0.00,,,0.00,Rainwise IP-100,2014-01-22 22:53:00,
2014-01-22 17:58:00,0.3,-6.0,29.13,WSW,247,2.0,4.0,75,0.00,,,0.00,Rainwise IP-100,2014-01-22 22:58:00,
2014-01-22 18:03:00,-0.9,-6.0,29.14,WSW,247,2.0,4.0,76,0.00,,,0.00,Rainwise IP-100,2014-01-22 23:03:00,
2014-01-22 18:08:00,-1.1,-6.0,29.14,WSW,247,3.0,4.0,77,0.00,,,0.00,Rainwise IP-100,2014-01-22 23:08:00,
2014-01-22 18:13:00,-1.3,-6.0,29.14,WSW,247,3.0,4.0,78,0.00,,,0.00,Rainwise IP-100,2014-01-22 23:13:00,
2014-01-22 18:18:00,-1.6,-6.0,29.14,WSW,247,3.0,4.0,78,0.00,,,0.00,Rainwise IP-100,2014-01-22 23:18:00,
2014-01-22 18:23:00,-1.5,-6.0,29.15,WSW,247,2.0,4.0,79,0.00,,,0.00,Rainwise IP-100,2014-01-22 23:23:00,
2014-01-22 18:28:00,-1.3,-6.0,29.15,WSW,247,2.0,3.0,80,0.00,,,0.00,Rainwise IP-100,2014-01-22 23:28:00,
2014-01-22 18:33:00,-1.5,-6.0,29.15,WSW,247,2.0,4.0,79,0.00,,,0.00,Rainwise IP-100,2014-01-22 23:33:00,
2014-01-22 18:38:00,-1.6,-6.0,29.14,WSW,247,2.0,3.0,79,0.00,,,0.00,Rainwise IP-100,2014-01-22 23:38:00,
2014-01-22 18:43:00,-1.5,-6.0,29.15,WSW,247,3.0,4.0,80,0.00,,,0.00,Rainwise IP-100,2014-01-22 23:43:00,
2014-01-22 18:48:00,-1.1,-6.0,29.15,WSW,247,2.0,4.0,80,0.00,,,0.00,Rainwise IP-100,2014-01-22 23:48:00,
2014-01-22 18:53:00,-0.5,-6.0,29.14,WSW,247,2.0,4.0,79,0.00,,,0.00,Rainwise IP-100,2014-01-22 23:53:00,
2014-01-22 18:58:00,-0.1,-6.0,29.14,WSW,247,1.0,4.0,79,0.00,,,0.00,Rainwise IP-100,2014-01-22 23:58:00,
2014-01-22 19:03:00,0.5,0.0,29.15,WSW,247,2.0,2.0,78,0.00,,,0.00,Rainwise IP-100,2014-01-23 00:03:00,
2014-01-22 19:08:00,0.5,0.0,29.14,WSW,247,2.0,3.0,78,0.00,,,0.00,Rainwise IP-100,2014-01-23 00:08:00,
2014-01-22 19:13:00,0.6,0.0,29.14,WSW,247,1.0,2.0,78,0.00,,,0.00,Rainwise IP-100,2014-01-23 00:13:00,
2014-01-22 19:18:00,0.5,0.0,29.14,WSW,247,2.0,3.0,78,0.00,,,0.00,Rainwise IP-100,2014-01-23 00:18:00,
2014-01-22 19:23:00,0.6,0.0,29.14,WSW,247,2.0,3.0,78,0.00,,,0.00,Rainwise IP-100,2014-01-23 00:23:00,
2014-01-22 19:28:00,0.1,-6.0,29.14,WSW,247,2.0,2.0,78,0.00,,,0.00,Rainwise IP-100,2014-01-23 00:28:00,
2014-01-22 19:33:00,-0.1,-6.0,29.15,WSW,247,1.0,3.0,79,0.00,,,0.00,Rainwise IP-100,2014-01-23 00:33:00,
2014-01-22 19:38:00,0.3,-6.0,29.15,WSW,247,2.0,3.0,79,0.00,,,0.00,Rainwise IP-100,2014-01-23 00:38:00,
2014-01-22 19:43:00,0.3,-6.0,29.14,SW,225,2.0,2.0,79,0.00,,,0.00,Rainwise IP-100,2014-01-23 00:43:00,
2014-01-22 19:48:00,0.2,-6.0,29.14,WSW,247,2.0,3.0,79,0.00,,,0.00,Rainwise IP-100,2014-01-23 00:48:00,
2014-01-22 19:53:00,0.3,-6.0,29.14,WSW,247,2.0,4.0,79,0.00,,,0.00,Rainwise IP-100,2014-01-23 00:53:00,
2014-01-22 21:15:00,-0.1,-6.0,29.15,SW,225,2.0,4.0,79,0.00,,,0.00,Rainwise IP-100,2014-01-23 02:15:00,
2014-01-22 21:19:00,-0.1,-6.0,29.15,SW,225,2.0,4.0,79,0.00,,,0.00,Rainwise IP-100,2014-01-23 02:19:00,
2014-01-22 21:21:00,-0.1,-6.0,29.15,SW,225,2.0,4.0,80,0.00,,,0.00,Rainwise IP-100,2014-01-23 02:21:00,
2014-01-22 21:23:00,-0.1,-6.0,29.15,SW,225,2.0,4.0,80,0.00,,,0.00,Rainwise IP-100,2014-01-23 02:23:00,
2014-01-22 21:24:00,-0.1,-6.0,29.15,SW,225,2.0,4.0,80,0.00,,,0.00,Rainwise IP-100,2014-01-23 02:24:00,
2014-01-22 21:29:00,-0.1,-6.0,29.14,SW,225,2.0,4.0,80,0.00,,,0.00,Rainwise IP-100,2014-01-23 02:29:00,
2014-01-22 21:34:00,0.2,-6.0,29.14,SW,225,4.0,5.0,80,0.00,,,0.00,Rainwise IP-100,2014-01-23 02:34:00,
2014-01-22 21:39:00,0.5,0.0,29.14,SW,225,2.0,4.0,80,0.00,,,0.00,Rainwise IP-100,2014-01-23 02:39:00,
2014-01-22 21:44:00,0.9,0.0,29.13,SW,225,2.0,5.0,79,0.00,,,0.00,Rainwise IP-100,2014-01-23 02:44:00,
2014-01-22 21:49:00,1.1,0.0,29.13,SW,225,3.0,4.0,79,0.00,,,0.00,Rainwise IP-100,2014-01-23 02:49:00,
2014-01-22 21:54:00,1.3,0.0,29.13,SW,225,2.0,6.0,79,0.00,,,0.00,Rainwise IP-100,2014-01-23 02:54:00,
2014-01-22 21:59:00,0.8,0.0,29.13,WSW,247,5.0,6.0,78,0.00,,,0.00,Rainwise IP-100,2014-01-23 02:59:00,
2014-01-22 22:04:00,0.1,-6.0,29.13,SW,225,4.0,6.0,79,0.00,,,0.00,Rainwise IP-100,2014-01-23 03:04:00,
2014-01-22 22:09:00,0.7,0.0,29.13,SW,225,6.0,7.0,80,0.00,,,0.00,Rainwise IP-100,2014-01-23 03:09:00,
2014-01-22 22:14:00,1.7,0.0,29.13,SSW,202,5.0,9.0,79,0.00,,,0.00,Rainwise IP-100,2014-01-23 03:14:00,
2014-01-22 22:19:00,1.9,0.0,29.13,SW,225,6.0,9.0,77,0.00,,,0.00,Rainwise IP-100,2014-01-23 03:19:00,
2014-01-22 22:24:00,2.3,0.0,29.12,SW,225,4.0,11.0,77,0.00,,,0.00,Rainwise IP-100,2014-01-23 03:24:00,
2014-01-22 22:29:00,2.6,0.0,29.13,WSW,247,9.0,11.0,77,0.00,,,0.00,Rainwise IP-100,2014-01-23 03:29:00,
2014-01-22 22:34:00,2.9,0.0,29.13,SW,225,7.0,9.0,77,0.00,,,0.00,Rainwise IP-100,2014-01-23 03:34:00,
2014-01-22 22:35:00,2.9,0.0,29.13,SW,225,6.0,10.0,76,0.00,,,0.00,Rainwise IP-100,2014-01-23 03:35:00,
2014-01-22 22:40:00,3.3,0.0,29.13,WSW,247,7.0,11.0,76,0.00,,,0.00,Rainwise IP-100,2014-01-23 03:40:00,
2014-01-22 22:45:00,3.3,0.0,29.13,WSW,247,4.0,11.0,76,0.00,,,0.00,Rainwise IP-100,2014-01-23 03:45:00,
2014-01-22 22:50:00,3.3,0.0,29.13,SW,225,5.0,9.0,76,0.00,,,0.00,Rainwise IP-100,2014-01-23 03:50:00,
2014-01-22 22:55:00,3.4,0.0,29.13,SW,225,5.0,9.0,76,0.00,,,0.00,Rainwise IP-100,2014-01-23 03:55:00,
2014-01-22 23:00:00,3.9,0.0,29.13,SW,225,2.0,10.0,76,0.00,,,0.00,Rainwise IP-100,2014-01-23 04:00:00,
2014-01-22 23:05:00,4.1,0.0,29.13,SW,225,5.0,9.0,76,0.00,,,0.00,Rainwise IP-100,2014-01-23 04:05:00,
2014-01-22 23:10:00,4.2,0.0,29.14,SW,225,6.0,11.0,76,0.00,,,0.00,Rainwise IP-100,2014-01-23 04:10:00,
2014-01-22 23:15:00,4.2,0.0,29.14,SW,225,4.0,11.0,76,0.00,,,0.00,Rainwise IP-100,2014-01-23 04:15:00,
2014-01-22 23:20:00,4.3,0.0,29.14,SW,225,7.0,11.0,76,0.00,,,0.00,Rainwise IP-100,2014-01-23 04:20:00,
2014-01-22 23:25:00,4.3,0.0,29.13,SW,225,6.0,10.0,75,0.00,,,0.00,Rainwise IP-100,2014-01-23 04:25:00,
2014-01-22 23:30:00,4.4,0.0,29.13,SW,225,6.0,10.0,75,0.00,,,0.00,Rainwise IP-100,2014-01-23 04:30:00,
2014-01-22 23:35:00,4.4,0.0,29.14,SW,225,2.0,9.0,75,0.00,,,0.00,Rainwise IP-100,2014-01-23 04:35:00,
2014-01-22 23:40:00,4.5,4.0,29.14,SW,225,6.0,9.0,76,0.00,,,0.00,Rainwise IP-100,2014-01-23 04:40:00,
2014-01-22 23:45:00,4.6,4.0,29.14,WSW,247,3.0,10.0,76,0.00,,,0.00,Rainwise IP-100,2014-01-23 04:45:00,
2014-01-22 23:50:00,4.6,4.0,29.13,SW,225,5.0,7.0,75,0.00,,,0.00,Rainwise IP-100,2014-01-23 04:50:00,
2014-01-22 23:55:00,4.6,4.0,29.13,SW,225,5.0,8.0,75,0.00,,,0.00,Rainwise IP-100,2014-01-23 04:55:00,